Regional Weather Roundup
Issued by NWS

Home | Current Version | Previous Version | Text Only | Print | Product List | Glossary Off
Versions: 1 2 3 4 5 6 7 8 9 10 11 12 13 14 15 16 17 18 19 20 21 22 23 24 25 26 27 28 29 30 31 32 33 34 35 36 37 38 39 40 41 42 43 44 45 46 47 48 49 50

000
ASUS45 KABQ 190210
RWRNM
NEW MEXICO REGIONAL WEATHER ROUNDUP
NATIONAL WEATHER SERVICE ALBUQUERQUE NM
700 PM MST THU JAN 18 2018

NOTE: "FAIR" MEANS FEW OR NO CLOUDS BELOW 12,000 FEET AGL WITH NO
       SIGNIFICANT WEATHER OR OBSTRUCTIONS TO VISION.

      THIS PRODUCT IS RELEASED AS TWO VERSIONS.  ONE VERSION NEAR
      THE TOP OF THE HOUR CONTAINING PRELIMINARY DATA FROM ALBUQUERQUE
      AND OTHER STATIONS.  A FINAL VERSION WITH ADDITIONAL DATA IS
      ISSUED ABOUT 10 MINUTES AFTER THE HOUR.

NMZ501-503-504-510>518-190300-
NORTHWEST PLATEAU/NORTHCENTRAL MOUNTAINS

CITY           SKY/WX    TMP DP  RH WIND       PRES   REMARKS
FARMINGTON     FAIR      37  18  46 E5        30.19S WCI  33
LOS ALAMOS     MOCLDY    42  11  28 SW3       30.20S
SANTA FE       FAIR      38  15  39 N3        30.17R
TAOS           FAIR      31   7  36 E8        30.22R WCI  23
ANGEL FIRE     FAIR      35   0  23 W7        30.22R WCI  29

$$
NMZ402-403-502-505>509-190300-
WESTCENTRAL MOUNTAINS/SOUTHWEST MOUNTAINS

CITY           SKY/WX    TMP DP  RH WIND       PRES   REMARKS
GALLUP         FAIR      36  16  44 W5        30.21S WCI  32
GRANTS         FAIR      37  14  39 NW9       30.23R WCI  30
SILVER CITY    FAIR      40  13  33 CALM      30.22R

$$
NMZ407-409-411-412-190300-
SOUTHERN DESERTS

CITY           SKY/WX    TMP DP  RH WIND       PRES   REMARKS
DEMING         FAIR      42  13  30 SW3       30.19S
LAS CRUCES     FAIR      39   9  29 W5        30.20S
HOLLOMAN AFB   FAIR      38  11  32 E7        30.21S WCI  32
ALAMOGORDO     FAIR      37   9  30 SE5       30.20S WCI  34
T OR C         FAIR      45   9  23 SW3       30.18R

$$
NMZ519>523-190300-
CENTRAL VALLEYS/CENTRAL HIGHLANDS

CITY           SKY/WX    TMP DP  RH WIND       PRES   REMARKS
ALBUQUERQUE    FAIR      45  11  25 SW3       30.18R
DOUBLE EAGLE   CLEAR     34  10  37 SW5       30.19S WCI  30
MORIARTY ARPT  FAIR      34   8  33 S3        30.17S
CLINES CORNERS FAIR      35  12  38 NW16      30.16S WCI  25
BELEN          FAIR      36   9  33 SW9       30.18S WCI  29
SOCORRO        FAIR      38  10  31 SW3       30.18R

$$
NMZ524>526-539-540-190300-
SOUTHCENTRAL MOUNTAINS

CITY           SKY/WX    TMP DP  RH WIND       PRES   REMARKS
RUIDOSO        FAIR      39  -2  17 NW7       30.20R WCI  34

$$
NMZ527>531-190300-
NORTHEAST HIGHLANDS/NORTHEAST PLAINS

CITY           SKY/WX    TMP DP  RH WIND       PRES   REMARKS
LAS VEGAS      FAIR      36   6  28 S12       30.11S WCI  28
RATON          FAIR      36   2  23 CALM      30.09R
CLAYTON        FAIR      42   7  23 SW8       30.03F

$$
NMZ532>537-190300-
EASTCENTRAL PLAINS

CITY           SKY/WX    TMP DP  RH WIND       PRES   REMARKS
TUCUMCARI      FAIR      43  11  27 S10       30.04S
CANNON AFB     FAIR      39   9  28 W13       30.12R WCI  32
CLOVIS AIRPORT FAIR      32   8  36 SW12      30.11R WCI  23

$$
NMZ028-029-538-190300-
SOUTHEAST PLAINS

CITY           SKY/WX    TMP DP  RH WIND       PRES   REMARKS
ROSWELL        FAIR      37  12  35 S8        30.11S WCI  31
ARTESIA        FAIR      37  10  32 S10       30.13S WCI  30
CARLSBAD       FAIR      33  12  41 SW6       30.14R WCI  28
HOBBS          FAIR      32  10  40 SW8       30.15S WCI  25


$$




USA.gov is the U.S. government's official web portal to all federal, state and local government web resources and services.